Location: White Ridge parking lot
(35.4984°N, 106.8413°W)
Time: 04:30:13
(UTC-06:00)

ITAMSAT 1 - Pass Details

Date: 26 September 2019
Orbit: 784 x 797 km, 98.9° (Epoch: 15 October)

Event Time Altitude Azimuth Distance (km) Brightness Sun altitude
Rises 05:36:49 0° 26° (NNE) 3,281 11.4 -17.3°
Reaches altitude 10° 05:39:28 10° 38° (NE) 2,350 10.8 -16.8°
Maximum altitude 05:43:52 28° 97° (E) 1,446 9.8 -15.9°
Drops below altitude 10° 05:48:16 10° 155° (SSE) 2,344 10.3 -15.0°
Sets 05:50:53 0° 167° (SSE) 3,271 10.9 -14.5°
